EN

Hourly Weather Almamellék

Today, 22 January, Friday

Time Temperature Precipitation Wind Pressure Humidity
00:00 +6°C° 0 mm 5 mps 743 mmHg 78%
01:00 +6°C° 0 mm 5 mps 743 mmHg 79%
02:00 +6°C° 0 mm 5 mps 742 mmHg 80%
03:00 +6°C° 0 mm 5 mps 742 mmHg 81%
04:00 +6°C° 0 mm 4 mps 741 mmHg 82%
05:00 +6°C° 0 mm 4 mps 741 mmHg 82%
06:00 +5°C° 0 mm 4 mps 741 mmHg 82%
07:00 +5°C° 0 mm 4 mps 740 mmHg 82%
08:00 +6°C° 0 mm 5 mps 740 mmHg 79%
09:00 +7°C° 0 mm 5 mps 740 mmHg 76%
10:00 +8°C° 0 mm 5 mps 740 mmHg 74%
11:00 +9°C° 0.1 mm 5 mps 739 mmHg 74%
12:00 +9°C° 0.1 mm 5 mps 739 mmHg 75%
13:00 +10°C° 0.1 mm 5 mps 738 mmHg 76%
14:00 +10°C° 0.1 mm 5 mps 738 mmHg 76%
15:00 +10°C° 0.1 mm 5 mps 738 mmHg 77%
16:00 +9°C° 0.1 mm 5 mps 738 mmHg 78%
17:00 +9°C° 0 mm 5 mps 737 mmHg 80%
18:00 +8°C° 0 mm 5 mps 737 mmHg 82%
19:00 +7°C° 0 mm 5 mps 737 mmHg 84%
20:00 +7°C° 0 mm 5 mps 736 mmHg 83%
21:00 +7°C° 0 mm 5 mps 736 mmHg 83%
22:00 +7°C° 0 mm 5 mps 736 mmHg 82%
23:00 +7°C° 0.3 mm 5 mps 735 mmHg 82%

Tomorrow, 23 January, Saturday

Time Temperature Precipitation Wind Pressure Humidity
00:00 +7°C° 0.3 mm 5 mps 735 mmHg 83%
01:00 +7°C° 0.3 mm 5 mps 734 mmHg 83%
02:00 +7°C° 0.1 mm 5 mps 734 mmHg 81%
03:00 +7°C° 0.1 mm 6 mps 734 mmHg 79%
04:00 +8°C° 0.1 mm 6 mps 733 mmHg 78%
05:00 +7°C° 0.3 mm 6 mps 733 mmHg 78%
06:00 +7°C° 0.3 mm 6 mps 733 mmHg 78%
07:00 +7°C° 0.3 mm 6 mps 733 mmHg 79%
08:00 +7°C° 0.2 mm 5 mps 733 mmHg 80%
09:00 +7°C° 0.2 mm 5 mps 733 mmHg 80%
10:00 +7°C° 0.2 mm 5 mps 733 mmHg 81%
11:00 +7°C° 1.1 mm 4 mps 732 mmHg 84%
12:00 +8°C° 1.1 mm 3 mps 732 mmHg 87%
13:00 +8°C° 1.1 mm 2 mps 732 mmHg 89%
14:00 +8°C° 0.2 mm 2 mps 732 mmHg 89%
15:00 +8°C° 0.2 mm 2 mps 732 mmHg 88%
16:00 +8°C° 0.2 mm 2 mps 732 mmHg 88%
17:00 +7°C° 0.1 mm 2 mps 732 mmHg 88%
18:00 +7°C° 0.1 mm 3 mps 732 mmHg 87%
19:00 +5°C° 0.1 mm 3 mps 732 mmHg 87%
20:00 +5°C° 0 mm 3 mps 732 mmHg 86%
21:00 +6°C° 0 mm 2 mps 732 mmHg 85%
22:00 +5°C° 0 mm 2 mps 732 mmHg 84%
23:00 +5°C° 0 mm 2 mps 732 mmHg 85%

Day after tomorrow, 24 January, Sunday

Time Temperature Precipitation Wind Pressure Humidity
00:00 +5°C° 0 mm 2 mps 732 mmHg 87%
01:00 +4°C° 0 mm 2 mps 732 mmHg 88%
02:00 +4°C° 0.1 mm 2 mps 732 mmHg 89%
03:00 +5°C° 0.1 mm 1 mps 731 mmHg 90%
04:00 +5°C° 0.1 mm 1 mps 731 mmHg 90%
05:00 +5°C° 0.2 mm 1 mps 732 mmHg 91%
06:00 +5°C° 0.2 mm 1 mps 732 mmHg 91%
07:00 +5°C° 0.2 mm 1 mps 732 mmHg 92%
08:00 +4°C° 0 mm 2 mps 733 mmHg 91%
09:00 +3°C° 0 mm 3 mps 733 mmHg 90%
10:00 +3°C° 0 mm 3 mps 734 mmHg 88%
11:00 +3°C° 0 mm 3 mps 734 mmHg 86%
12:00 +1°C° 0 mm 4 mps 734 mmHg 84%
13:00 +1°C° 0 mm 4 mps 734 mmHg 83%
14:00 +2°C° 0 mm 3 mps 735 mmHg 80%
15:00 +4°C° 0 mm 2 mps 735 mmHg 77%
16:00 +4°C° 0 mm 2 mps 735 mmHg 74%
17:00 +4°C° 0 mm 1 mps 736 mmHg 77%
18:00 +4°C° 0 mm 1 mps 736 mmHg 80%
19:00 +3°C° 0 mm 1 mps 736 mmHg 82%
20:00 +3°C° 0 mm 1 mps 736 mmHg 82%
21:00 +2°C° 0 mm 2 mps 735 mmHg 81%
22:00 +2°C° 0 mm 2 mps 735 mmHg 81%
23:00 +2°C° 0 mm 2 mps 735 mmHg 79%

25 January, Monday

Time Temperature Precipitation Wind Pressure Humidity
00:00 +1°C° 0 mm 3 mps 735 mmHg 78%
01:00 +1°C° 0 mm 3 mps 735 mmHg 77%
02:00 0°C° 0 mm 4 mps 735 mmHg 74%
03:00 0°C° 0 mm 4 mps 735 mmHg 72%
04:00 -1°C° 0 mm 4 mps 735 mmHg 69%
05:00 -1°C° 0 mm 5 mps 735 mmHg 70%
06:00 -1°C° 0 mm 5 mps 735 mmHg 70%
07:00 -1°C° 0 mm 5 mps 736 mmHg 71%
08:00 -2°C° 0 mm 6 mps 736 mmHg 69%
09:00 -1°C° 0 mm 6 mps 736 mmHg 68%
10:00 -1°C° 0 mm 7 mps 737 mmHg 66%
11:00 0°C° 0 mm 7 mps 737 mmHg 65%
12:00 0°C° 0 mm 7 mps 737 mmHg 63%
13:00 +1°C° 0 mm 8 mps 738 mmHg 61%
14:00 0°C° 0 mm 7 mps 738 mmHg 60%
15:00 +1°C° 0 mm 6 mps 739 mmHg 59%
16:00 +1°C° 0 mm 6 mps 739 mmHg 57%
17:00 0°C° 0 mm 5 mps 740 mmHg 61%
18:00 0°C° 0 mm 5 mps 741 mmHg 64%
19:00 -1°C° 0 mm 4 mps 741 mmHg 67%
20:00 -1°C° 0 mm 4 mps 742 mmHg 69%
21:00 -1°C° 0 mm 4 mps 742 mmHg 72%
22:00 -1°C° 0 mm 3 mps 743 mmHg 74%
23:00 -1°C° 0 mm 3 mps 743 mmHg 74%

26 January, Tuesday

Time Temperature Precipitation Wind Pressure Humidity
00:00 -1°C° 0 mm 3 mps 744 mmHg 75%
01:00 -1°C° 0 mm 2 mps 744 mmHg 76%
02:00 -1°C° 0 mm 2 mps 744 mmHg 77%
03:00 -2°C° 0 mm 2 mps 744 mmHg 79%
04:00 0°C° 0 mm 1 mps 744 mmHg 81%
05:00 0°C° 0 mm 1 mps 745 mmHg 80%
06:00 0°C° 0 mm 1 mps 745 mmHg 80%
07:00 0°C° 0 mm 1 mps 745 mmHg 80%
08:00 -1°C° 0 mm 2 mps 745 mmHg 76%
09:00 +1°C° 0 mm 2 mps 746 mmHg 72%
10:00 +2°C° 0 mm 2 mps 746 mmHg 68%
11:00 +3°C° 0 mm 2 mps 746 mmHg 65%
12:00 +4°C° 0 mm 2 mps 746 mmHg 61%
13:00 +4°C° 0 mm 3 mps 745 mmHg 57%
14:00 +4°C° 0 mm 2 mps 745 mmHg 62%
15:00 +3°C° 0 mm 2 mps 745 mmHg 66%
16:00 +4°C° 0 mm 1 mps 745 mmHg 70%
17:00 +2°C° 0 mm 2 mps 746 mmHg 72%
18:00 +2°C° 0 mm 2 mps 746 mmHg 73%
19:00 0°C° 0 mm 3 mps 747 mmHg 74%
20:00 0°C° 0 mm 3 mps 747 mmHg 78%
21:00 -1°C° 0 mm 2 mps 748 mmHg 81%
22:00 -1°C° 0 mm 2 mps 748 mmHg 85%
23:00 -2°C° 0 mm 2 mps 748 mmHg 84%

27 January, Wednesday

Time Temperature Precipitation Wind Pressure Humidity
00:00 0°C° 0 mm 1 mps 748 mmHg 84%
01:00 0°C° 0 mm 1 mps 748 mmHg 84%
02:00 0°C° 0 mm 1 mps 748 mmHg 83%
03:00 0°C° 0 mm 1 mps 748 mmHg 83%
04:00 0°C° 0 mm 1 mps 748 mmHg 83%
05:00 0°C° 0 mm 1 mps 748 mmHg 81%
06:00 -2°C° 0 mm 2 mps 747 mmHg 80%
07:00 -2°C° 0 mm 2 mps 747 mmHg 79%
08:00 -1°C° 0 mm 2 mps 747 mmHg 74%
09:00 +1°C° 0 mm 2 mps 747 mmHg 69%
10:00 +1°C° 0 mm 3 mps 746 mmHg 65%
11:00 +2°C° 0 mm 3 mps 746 mmHg 61%
12:00 +3°C° 0 mm 3 mps 745 mmHg 57%
13:00 +4°C° 0 mm 4 mps 745 mmHg 53%
14:00 +3°C° 0 mm 3 mps 745 mmHg 58%
15:00 +3°C° 0 mm 3 mps 745 mmHg 63%
16:00 +4°C° 0 mm 2 mps 745 mmHg 67%
17:00 +3°C° 0 mm 2 mps 745 mmHg 71%
18:00 +2°C° 0 mm 2 mps 745 mmHg 74%
19:00 +2°C° 0 mm 2 mps 746 mmHg 78%
20:00 +2°C° 0 mm 2 mps 746 mmHg 78%
21:00 +2°C° 0 mm 2 mps 746 mmHg 78%
22:00 +2°C° 0 mm 2 mps 746 mmHg 78%
23:00 +2°C° 0 mm 2 mps 746 mmHg 78%
Show more